Flag for Vietnam Weather past 2 weeks in Ho Chi Minh, Vietnam

Now
91 °F

Scattered clouds.


Feels Like: 96 °F
Forecast: 80 / 94 °F
Wind: 5 mph from North

Location: Ho Chi Minh

Current Time: Apr 18, 2015 at 12:26:30 PM

Latest Report: Apr 18, 2015 at 12:00 PM


Visibility: N/A

Pressure: 29.86 "Hg

Humidity: 46%

Dew point: 68 °F

Location of Ho Chi MinhLocation

Historic Weather in Ho Chi Minh — Graph

°F

Ho Chi Minh temperature yesterday

Maximum temperature yesterday: 95 °F (at 3:30 PM)
Minimum temperature yesterday: 79 °F (at 2:00 AM)
Average temperature yesterday: 85 °F

Past Weeks' High & Low Weather Summary

 TemperatureHumidityPressure
High99 °F (Apr 8, 1:00 PM)94% (Apr 14, 2:00 AM)29.98 "Hg (Apr 14, 2:00 AM)
Low75 °F (Apr 13, 12:00 AM)27% (Apr 8, 1:00 PM)29.65 "Hg (Apr 3, 3:00 PM)
Average85 °F62%29.83 "Hg
* Reported Apr 3 11:00 AM — Apr 18 11:30 AM, Ho Chi Minh, Weather by CustomWeather, © 2015

Note: Actual official high and low records may vary slightly from our data, if they occured in-between our weather recording intervals... More about our weather records

Advertising

Ho Chi Minh weather history for previous 24 hours

 ConditionsComfort  
Time TempWeatherWind HumidityBarometerVisibility
11:30 AM
Sat, Apr 18
93 °FScattered clouds.7 mph47%29.86 "HgN/A
11:00 AM90 °FScattered clouds.3 mph52%29.86 "HgN/A
10:30 AM88 °FScattered clouds.5 mph55%29.89 "HgN/A
10:00 AM90 °FPartly sunny.7 mph55%29.89 "HgN/A
9:30 AM88 °FPartly sunny.7 mph59%29.89 "HgN/A
9:00 AM86 °FPartly sunny.8 mph62%29.89 "HgN/A
8:30 AM86 °FScattered clouds.8 mph62%29.86 "HgN/A
8:00 AM84 °FScattered clouds.8 mph66%29.86 "HgN/A
7:30 AM82 °FPassing clouds.7 mph74%29.83 "HgN/A
7:00 AM81 °FPassing clouds.6 mph79%29.83 "Hg5 mi
6:30 AM81 °FPassing clouds.3 mph79%29.80 "Hg5 mi
6:00 AM79 °FScattered clouds.7 mph84%29.80 "Hg5 mi
5:30 AM79 °FPassing clouds.3 mph84%29.80 "Hg5 mi
5:00 AM79 °FPassing clouds.3 mph84%29.80 "HgN/A
4:30 AM81 °FPassing clouds.7 mph79%29.80 "HgN/A
4:00 AM81 °FPassing clouds.7 mph79%29.77 "HgN/A
3:30 AM81 °FPassing clouds.6 mph79%29.77 "HgN/A
3:00 AM81 °FPassing clouds.7 mph79%29.77 "HgN/A
2:30 AM81 °FPassing clouds.6 mph79%29.80 "HgN/A
2:00 AM81 °FPassing clouds.9 mph79%29.80 "HgN/A
1:30 AM81 °FPassing clouds.10 mph79%29.80 "HgN/A
1:00 AM81 °FPassing clouds.9 mph79%29.80 "HgN/A
12:30 AM81 °FPassing clouds.10 mph79%29.80 "HgN/A
12:00 AM81 °FPassing clouds.10 mph79%29.80 "HgN/A
11:30 PM
Fri, Apr 17
81 °FPassing clouds.10 mph79%29.83 "HgN/A
11:00 PM82 °FPassing clouds.12 mph74%29.83 "HgN/A
10:30 PM82 °FPassing clouds.9 mph74%29.83 "HgN/A
10:00 PM82 °FPassing clouds.12 mph74%29.83 "HgN/A
9:30 PM82 °FClear.10 mph74%29.83 "Hg10 mi
9:00 PM82 °FPassing clouds.9 mph74%29.83 "HgN/A
8:30 PM82 °FClear.13 mph74%29.80 "Hg10 mi
8:00 PM84 °FPassing clouds.12 mph66%29.80 "HgN/A
7:30 PM84 °FClear.10 mph66%29.77 "Hg10 mi
7:00 PM84 °FPassing clouds.10 mph66%29.77 "HgN/A
6:30 PM86 °FClear.12 mph62%29.77 "Hg10 mi
6:00 PM86 °FPassing clouds.8 mph62%29.74 "HgN/A
5:30 PM90 °FPassing clouds.10 mph52%29.74 "HgN/A
5:00 PM91 °FPassing clouds.9 mph49%29.74 "HgN/A
4:30 PM91 °FPassing clouds.8 mph49%29.74 "HgN/A
4:00 PM93 °FScattered clouds.6 mph47%29.74 "HgN/A
3:30 PM95 °FScattered clouds.5 mph44%29.74 "HgN/A
3:00 PM93 °FScattered clouds.5 mph47%29.77 "HgN/A
2:30 PM93 °FScattered clouds.6 mph47%29.77 "HgN/A
2:00 PM93 °FScattered clouds.3 mph47%29.77 "HgN/A
1:30 PM93 °FScattered clouds.3 mph47%29.80 "HgN/A
1:00 PM91 °FPartly sunny.7 mph49%29.83 "HgN/A
12:30 PM91 °FPartly sunny.5 mph49%29.86 "HgN/A
12:00 PM91 °FPartly sunny.3 mph49%29.86 "HgN/A
Weather by CustomWeather, © 2015

See weather overviewHow to use our weather pages